This is the latest recevied weather packets stored in our database for station/object AA7VG. If no packets are shown the sender has not sent any weather packets the latest 10 day(s).
| Time | Temp. | Humidity | Pressure | Rain* | Wind** | Luminosity | Snow |
|---|---|---|---|---|---|---|---|
| 1787785277 | 32.78° C | 18% | 1018.7 hPa | 0 mm | - | - | - |
| 1787784976 | 32.22° C | 18% | 1018.7 hPa | 0 mm | - | - | - |
| 1787784676 | 31.67° C | 18% | 1018.8 hPa | 0 mm | - | - | - |
| 1787784375 | 32.22° C | 18% | 1018.8 hPa | 0 mm | - | - | - |
| 1787784070 | 32.22° C | 17% | 1018.9 hPa | 0 mm | - | - | - |
| 1787783766 | 32.78° C | 17% | 1019.1 hPa | 0 mm | - | - | - |
| 1787783466 | 32.78° C | 17% | 1018.9 hPa | 0 mm | - | - | - |
| 1787783161 | 32.78° C | 16% | 1019.3 hPa | 0 mm | - | - | - |
| 1787782856 | 32.22° C | 16% | 1019.2 hPa | 0 mm | - | - | - |
| 1787782556 | 33.33° C | 17% | 1019.2 hPa | 0 mm | - | - | - |
| 1787782251 | 32.78° C | 17% | 1019.1 hPa | 0 mm | - | - | - |
| 1787781947 | 34.44° C | 15% | 1019.2 hPa | 0 mm | - | - | - |
| 1787781642 | 34.44° C | 15% | 1019.2 hPa | 0 mm | - | - | - |
| 1787781339 | 33.89° C | 16% | 1019.4 hPa | 0 mm | - | - | - |
| 1787781038 | 33.89° C | 15% | 1018.9 hPa | 0 mm | - | - | - |
| 1787780738 | 34.44° C | 16% | 1019.3 hPa | 0 mm | - | - | - |
| 1787780437 | 33.89° C | 17% | 1019.3 hPa | 0 mm | - | - | - |
| 1787780134 | 33.33° C | 16% | 1019.4 hPa | 0 mm | - | - | - |
| 1787779829 | 33.89° C | 16% | 1019.3 hPa | 0 mm | - | - | - |
| 1787779528 | 33.33° C | 17% | 1019.5 hPa | 0 mm | - | - | - |
| 1787779224 | 33.89° C | 15% | 1019.4 hPa | 0 mm | - | - | - |
| 1787778923 | 34.44° C | 16% | 1019.6 hPa | 0 mm | - | - | - |
| 1787778619 | 33.89° C | 18% | 1019.9 hPa | 0 mm | - | - | - |
| 1787778314 | 33.33° C | 19% | 1019.9 hPa | 0 mm | - | - | - |
| 1787778010 | 32.78° C | 20% | 1020 hPa | 0 mm | - | - | - |
* Rain latest hour (hover to see other rain measurements)
** Current wind speed in m/s (hover to see current wind gust speed)